EZY131X EGKK-EGPD

Flight info

Callsign EZY131X
Flight time N/A
Altitude 36000
Route LAM L10 BPK UN601 LESTA UY250 KEFTE/N0420F350 DCT MADAD/N0351F240 P18 EPCAN
Aircraft A21N/M-SDE2E3FGHIRWXY/LB1

Departure

Time N/A
Airport London Gatwick Airport (EGKK)

Arrival

Time 2026-05-07 17:50
Airport Aberdeen International Airport (EGPD)
Time Latitude Longitude Altitude Speed Heading
2026-05-07 17:04 52.54269 -0.87598 36042 ft 457 kts 327°
2026-05-07 17:04 52.59723 -0.93005 36040 ft 458 kts 328°
2026-05-07 17:05 52.65184 -0.98416 36022 ft 462 kts 327°
2026-05-07 17:05 52.70694 -1.03924 36014 ft 464 kts 327°
2026-05-07 17:06 52.76610 -1.08109 36026 ft 467 kts 347°
2026-05-07 17:06 52.83004 -1.10008 36026 ft 468 kts 350°
2026-05-07 17:07 52.89426 -1.11873 36027 ft 468 kts 349°
2026-05-07 17:07 52.95833 -1.13827 36028 ft 468 kts 349°
2026-05-07 17:08 53.02233 -1.15797 36027 ft 468 kts 349°
2026-05-07 17:08 53.08645 -1.17775 36034 ft 468 kts 349°
2026-05-07 17:09 53.15014 -1.19726 36033 ft 469 kts 349°
2026-05-07 17:09 53.21421 -1.21701 36036 ft 468 kts 349°
2026-05-07 17:10 53.27836 -1.23676 36031 ft 469 kts 349°
2026-05-07 17:10 53.34257 -1.25676 36028 ft 469 kts 349°
2026-05-07 17:11 53.40678 -1.27661 36027 ft 469 kts 350°
2026-05-07 17:11 53.47173 -1.28691 36027 ft 469 kts 356°
2026-05-07 17:12 53.53679 -1.29473 36031 ft 469 kts 356°
2026-05-07 17:12 53.60045 -1.31674 36024 ft 469 kts 336°
2026-05-07 17:13 53.65723 -1.37030 36030 ft 468 kts 327°
2026-05-07 17:13 53.71274 -1.42796 36023 ft 468 kts 328°
2026-05-07 17:14 53.76849 -1.48517 36023 ft 469 kts 328°
2026-05-07 17:14 53.82440 -1.54241 36028 ft 470 kts 328°
2026-05-07 17:15 53.88048 -1.59963 36024 ft 471 kts 328°
2026-05-07 17:15 53.93649 -1.65705 36019 ft 471 kts 328°
2026-05-07 17:16 53.99275 -1.71401 36021 ft 471 kts 332°
2026-05-07 17:16 54.02329 -1.73453 36014 ft 473 kts 345°
2026-05-07 17:16 54.05569 -1.74348 36017 ft 473 kts 357°
2026-05-07 17:17 54.12147 -1.74355 36022 ft 473 kts
2026-05-07 17:17 54.18726 -1.74267 36017 ft 473 kts
2026-05-07 17:18 54.25311 -1.74229 36023 ft 474 kts
2026-05-07 17:18 54.31906 -1.74198 36022 ft 474 kts
2026-05-07 17:19 54.38516 -1.74163 36018 ft 475 kts
2026-05-07 17:19 54.45117 -1.74137 36013 ft 474 kts
2026-05-07 17:20 54.51713 -1.74104 36017 ft 474 kts
2026-05-07 17:20 54.58314 -1.74076 36015 ft 474 kts
2026-05-07 17:21 54.64902 -1.74043 36008 ft 474 kts
2026-05-07 17:21 54.71500 -1.74015 36004 ft 474 kts
2026-05-07 17:22 54.78054 -1.73983 36000 ft 475 kts
2026-05-07 17:22 54.84666 -1.73948 36011 ft 475 kts
2026-05-07 17:23 54.91276 -1.73917 36029 ft 475 kts
2026-05-07 17:23 54.97884 -1.73886 36036 ft 475 kts
2026-05-07 17:24 55.04495 -1.73853 36038 ft 475 kts 360°
2026-05-07 17:24 55.11111 -1.73827 36029 ft 476 kts
2026-05-07 17:25 55.17735 -1.73789 36026 ft 476 kts
2026-05-07 17:25 55.24354 -1.73754 36000 ft 475 kts 360°
2026-05-07 17:26 55.30966 -1.73724 36009 ft 476 kts 359°
2026-05-07 17:26 55.37587 -1.73692 36000 ft 475 kts 359°
2026-05-07 17:27 55.44201 -1.73663 35997 ft 475 kts 359°
2026-05-07 17:27 55.47489 -1.73649 35810 ft 469 kts 359°
2026-05-07 17:27 55.50744 -1.73631 35212 ft 467 kts 360°
2026-05-07 17:28 55.53993 -1.73610 34503 ft 467 kts 360°
2026-05-07 17:28 55.57254 -1.73592 33732 ft 468 kts 360°
2026-05-07 17:28 55.60513 -1.73576 32906 ft 470 kts 360°
2026-05-07 17:28 55.63797 -1.73559 32081 ft 473 kts 359°
2026-05-07 17:29 55.67098 -1.73543 31268 ft 476 kts 359°
2026-05-07 17:29 55.70414 -1.73527 30477 ft 477 kts 359°
2026-05-07 17:29 55.73738 -1.73510 29621 ft 478 kts 359°
2026-05-07 17:29 55.77062 -1.73492 28706 ft 479 kts 359°
2026-05-07 17:30 55.80405 -1.73479 27802 ft 480 kts 358°
2026-05-07 17:30 55.83741 -1.73465 26871 ft 481 kts 358°
2026-05-07 17:30 55.87096 -1.73447 25898 ft 483 kts 358°
2026-05-07 17:30 55.90459 -1.73513 24976 ft 483 kts 355°
2026-05-07 17:31 55.93769 -1.74321 24173 ft 478 kts 346°
2026-05-07 17:31 55.96980 -1.75474 23477 ft 474 kts 346°
2026-05-07 17:31 56.00192 -1.76665 22709 ft 470 kts 346°
2026-05-07 17:31 56.03396 -1.77862 22118 ft 477 kts 346°
2026-05-07 17:32 56.06659 -1.79064 21728 ft 479 kts 346°
2026-05-07 17:32 56.09919 -1.80261 21375 ft 477 kts 346°
2026-05-07 17:32 56.13143 -1.81451 20835 ft 469 kts 346°
2026-05-07 17:32 56.15292 -1.82256 20420 ft 464 kts 346°
2026-05-07 17:33 56.19428 -1.83803 19674 ft 453 kts 346°
2026-05-07 17:33 56.22492 -1.84940 19107 ft 447 kts 346°
2026-05-07 17:33 56.25522 -1.86072 18522 ft 442 kts 346°
2026-05-07 17:33 56.28521 -1.87194 17835 ft 439 kts 346°
2026-05-07 17:34 56.31504 -1.88312 17135 ft 437 kts 346°
2026-05-07 17:34 56.34464 -1.89436 16527 ft 432 kts 345°
2026-05-07 17:34 56.37389 -1.90580 15965 ft 428 kts 345°
2026-05-07 17:34 56.40282 -1.91699 15444 ft 422 kts 345°
2026-05-07 17:35 56.43142 -1.92794 14917 ft 418 kts 345°
2026-05-07 17:35 56.45969 -1.93867 14457 ft 413 kts 345°
2026-05-07 17:35 56.48764 -1.94920 14055 ft 407 kts 345°
2026-05-07 17:35 56.51512 -1.95945 13655 ft 401 kts 345°
2026-05-07 17:36 56.54244 -1.96962 13154 ft 399 kts 345°
2026-05-07 17:36 56.56945 -1.97989 12601 ft 395 kts 345°
2026-05-07 17:36 56.59627 -1.98998 12111 ft 392 kts 345°
2026-05-07 17:36 56.62264 -2.00002 11713 ft 380 kts 345°
2026-05-07 17:37 56.64765 -2.00968 11452 ft 366 kts 345°
2026-05-07 17:37 56.67215 -2.01892 11236 ft 352 kts 345°
2026-05-07 17:37 56.69568 -2.02779 11054 ft 339 kts 345°
2026-05-07 17:37 56.71828 -2.03639 10885 ft 326 kts 345°
2026-05-07 17:38 56.74029 -2.04483 10508 ft 321 kts 344°
2026-05-07 17:38 56.76215 -2.05328 10012 ft 322 kts 344°
2026-05-07 17:38 56.78406 -2.06170 9488 ft 322 kts 344°
2026-05-07 17:38 56.80596 -2.07012 9004 ft 324 kts 345°
2026-05-07 17:39 56.82820 -2.07875 8685 ft 328 kts 345°
2026-05-07 17:39 56.85053 -2.08748 8398 ft 328 kts 344°
2026-05-07 17:39 56.86554 -2.09339 8218 ft 327 kts 344°
2026-05-07 17:39 56.88770 -2.10213 7953 ft 325 kts 344°
2026-05-07 17:40 56.90984 -2.11084 7685 ft 325 kts 344°
2026-05-07 17:40 56.93183 -2.11951 7312 ft 323 kts 344°
2026-05-07 17:40 56.95290 -2.13278 6767 ft 319 kts 332°
2026-05-07 17:40 56.97317 -2.15020 6084 ft 324 kts 330°
2026-05-07 17:41 56.99334 -2.16829 5343 ft 330 kts 329°
2026-05-07 17:41 57.01397 -2.18697 4762 ft 330 kts 330°
2026-05-07 17:41 57.03536 -2.20219 4382 ft 328 kts 338°
2026-05-07 17:41 57.05678 -2.21456 4123 ft 319 kts 339°
2026-05-07 17:42 57.07777 -2.22638 3912 ft 310 kts 340°
2026-05-07 17:42 57.09803 -2.23768 3698 ft 300 kts 340°
2026-05-07 17:42 57.11771 -2.24858 3421 ft 293 kts 339°
2026-05-07 17:42 57.13701 -2.25945 3142 ft 286 kts 338°
2026-05-07 17:43 57.15582 -2.27028 2976 ft 278 kts 339°
2026-05-07 17:43 57.17392 -2.28029 2949 ft 265 kts 339°
2026-05-07 17:43 57.19121 -2.28970 2826 ft 253 kts 340°
2026-05-07 17:43 57.20822 -2.29903 2712 ft 250 kts 339°
2026-05-07 17:44 57.22445 -2.30800 2632 ft 238 kts 339°
2026-05-07 17:44 57.23995 -2.31671 2504 ft 228 kts 339°
2026-05-07 17:44 57.25425 -2.32569 2620 ft 204 kts 333°
2026-05-07 17:44 57.26699 -2.33597 2656 ft 199 kts 330°
2026-05-07 17:45 57.27980 -2.34568 2612 ft 200 kts 336°
2026-05-07 17:45 57.29268 -2.35401 2595 ft 190 kts 334°
2026-05-07 17:45 57.30437 -2.36137 2638 ft 172 kts 346°
2026-05-07 17:45 57.31636 -2.35711 2660 ft 184 kts 33°
2026-05-07 17:46 57.32379 -2.33891 2516 ft 176 kts 72°
2026-05-07 17:46 57.32579 -2.31745 2437 ft 166 kts 104°
2026-05-07 17:46 57.32329 -2.29714 2460 ft 160 kts 114°
2026-05-07 17:46 57.31876 -2.27917 2571 ft 149 kts 143°
2026-05-07 17:47 57.30975 -2.27169 2510 ft 140 kts 172°
2026-05-07 17:47 57.30050 -2.26846 2393 ft 133 kts 173°
2026-05-07 17:47 57.29174 -2.26434 2206 ft 127 kts 167°
2026-05-07 17:47 57.28364 -2.25796 1961 ft 127 kts 160°
2026-05-07 17:48 57.27580 -2.25064 1744 ft 126 kts 161°
2026-05-07 17:48 57.26781 -2.24432 1576 ft 124 kts 165°
2026-05-07 17:48 57.25975 -2.23887 1424 ft 123 kts 166°
2026-05-07 17:48 57.25168 -2.23367 1252 ft 122 kts 164°
2026-05-07 17:49 57.24383 -2.22781 1022 ft 122 kts 161°
2026-05-07 17:49 57.23599 -2.22231 836 ft 118 kts 162°
2026-05-07 17:49 57.22807 -2.21683 665 ft 124 kts 161°
2026-05-07 17:49 57.22005 -2.21098 471 ft 124 kts 160°
2026-05-07 17:50 57.21191 -2.20505 325 ft 126 kts 159°
2026-05-07 17:50 57.20417 -2.19942 255 ft 108 kts 158°
2026-05-07 17:50 57.20010 -2.19639 256 ft 30 kts 157°
2026-05-07 17:50 57.19846 -2.19521 256 ft 23 kts 159°
2026-05-07 17:51 57.19704 -2.19423 256 ft 21 kts 157°
2026-05-07 17:51 57.19568 -2.19319 253 ft 22 kts 158°
2026-05-07 17:51 57.19479 -2.19256 252 ft 11 kts 171°
2026-05-07 17:51 57.19432 -2.19339 252 ft 13 kts 293°
2026-05-07 17:52 57.19485 -2.19448 252 ft 11 kts 317°
2026-05-07 17:52 57.19545 -2.19552 253 ft 13 kts 318°
2026-05-07 17:52 57.19621 -2.19668 253 ft 10 kts 336°
2026-05-07 17:52 57.19688 -2.19724 253 ft 12 kts 335°
2026-05-07 17:53 57.19772 -2.19791 253 ft 14 kts 339°
2026-05-07 17:53 57.19860 -2.19861 253 ft 14 kts 325°
2026-05-07 17:53 57.19917 -2.19954 253 ft 10 kts 315°
2026-05-07 17:53 57.19974 -2.20047 252 ft 12 kts 330°
2026-05-07 17:54 57.20028 -2.20093 252 ft 4 kts 338°
2026-05-07 17:54 57.20048 -2.20133 252 ft 6 kts 268°
2026-05-07 17:54 57.20032 -2.20209 252 ft 6 kts 247°
2026-05-07 17:54 57.20030 -2.20220 252 ft 0 kts 248°